STARLINK-35494 (65927 NORAD) Tracking and Keplerian Element Data

This shows tracking and keplerian element data for the satellite.

Feedback or suggestion? Click here.




ElementValue
Catalog65927
NameSTARLINK-35494
Epoch Orbit1208
Epoch Day353.22059839
Epoch Year2025
RAAN179.7487
Inclination53.1579
Eccentricity0.0001451
Argument of Perigee89.7437
Mean Anonmoly270.373
Mean Motion15.30207623
Decay Rate0.00011868
L11 65927U 25225T 25353.22059839 .00011868 00000+0 41210-3 0 9995
L22 65927 53.1579 179.7487 0001451 89.7437 270.3730 15.30207623 12085



Live tracking and technical data element details for STARLINK-35494 (NORAD 65927). STARLINK-35494 can be tracked NOW for your location showing map with azimuth and elevation plus other details from your city location.







IsCatalogInMostPopularTable: catalog: 65927, numindb: 5
Update: records affected: 1



GetName: 65927 STARLINK-35494

Hit Count: updated at: Mon, 09 Feb 2026 08:02:49 GMT